QPF
0.00 0.00 0.00 0.00 0.01 0.01 0.01 0.01 0.01 0.01 0.01 0.00 0.01 0.01 0.00 0.00 0.00 0.00 0.00 0.00 0.02 0.03 0.03 0.02 0.01 0.01 0.01 0.01 0.01 0.01 0.01 0.01 0.01 0.01 0.01 0.02 0.02 0.03 0.03 0.03 0.03 0.03 0.03 0.03
0.00 0.00 0.00 0.00 0.01 0.01 0.01 0.00 0.01 0.00 0.01 0.01 0.01 0.01 0.00 0.00 0.00 0.00 0.00 0.00 0.01 0.02 0.03 0.02 0.01 0.01 0.01 0.01 0.01 0.02 0.01 0.01 0.01 0.01 0.01 0.01 0.02 0.02 0.02 0.02 0.02 0.02 0.02 0.03
0.01 0.00 0.00 0.01 0.01 0.01 0.01 0.01 0.01 0.01 0.01 0.01 0.00 0.00 0.00 0.00 0.00 0.00 0.00 0.00 0.00 0.01 0.01 0.02 0.02 0.01 0.01 0.01 0.01 0.01 0.01 0.01 0.01 0.01 0.01 0.01 0.01 0.01 0.01 0.01 0.01 0.02 0.02 0.02
0.01 0.01 0.01 0.01 0.01 0.01 0.01 0.01 0.01 0.01 0.00 0.00 0.00 0.00 0.00 0.00 0.00 0.00 0.00 0.00 0.00 0.00 0.01 0.01 0.02 0.02 0.02 0.01 0.01 0.01 0.01 0.01 0.01 0.01 0.01 0.01 0.01 0.01 0.01 0.01 0.01 0.01 0.01 0.01
0.02 0.01 0.00 0.00 0.00 0.00 0.01 0.01 0.01 0.01 0.00 0.00 0.00 0.00 0.00 0.00 0.00 0.00 0.00 0.00 0.00 0.00 0.00 0.01 0.01 0.01 0.02 0.02 0.01 0.01 0.01 0.01 0.01 0.01 0.01 0.01 0.01 0.01 0.01 0.01 0.01 0.01 0.01 0.01
0.02 0.01 0.00 0.00 0.00 0.00 0.01 0.01 0.01 0.01 0.01 0.01 0.01 0.01 0.00 0.00 0.00 0.00 0.00 0.00 0.00 0.00 0.01 0.01 0.01 0.01 0.01 0.01 0.01 0.01 0.01 0.01 0.01 0.01 0.01 0.01 0.01 0.01 0.02 0.02 0.01 0.01 0.01 0.01
0.02 0.01 0.00 0.00 0.00 0.00 0.01 0.01 0.00 0.00 0.01 0.02 0.01 0.01 0.00 0.00 0.00 0.00 0.00 0.00 0.01 0.01 0.01 0.01 0.01 0.01 0.00 0.00 0.01 0.01 0.01 0.01 0.01 0.01 0.01 0.01 0.01 0.01 0.01 0.01 0.01 0.01 0.01 0.02
0.02 0.02 0.01 0.00 0.00 0.01 0.01 0.00 0.00 0.00 0.01 0.02 0.01 0.00 0.00 0.00 0.00 0.00 0.00 0.00 0.01 0.01 0.01 0.00 0.00 0.00 0.00 0.00 0.01 0.01 0.01 0.01 0.01 0.01 0.01 0.01 0.01 0.01 0.01 0.01 0.01 0.01 0.01 0.02
0.02 0.01 0.01 0.01 0.01 0.01 0.01 0.01 0.00 0.00 0.00 0.01 0.02 0.01 0.01 0.00 0.00 0.00 0.00 0.00 0.00 0.01 0.00 0.00 0.00 0.01 0.01 0.01 0.01 0.01 0.01 0.01 0.01 0.01 0.01 0.01 0.01 0.02 0.02 0.02 0.01 0.01 0.01 0.01
0.01 0.01 0.01 0.01 0.01 0.01 0.01 0.01 0.01 0.01 0.01 0.01 0.01 0.01 0.01 0.00 0.00 0.00 0.00 0.00 0.01 0.01 0.01 0.00 0.00 0.00 0.01 0.01 0.01 0.01 0.01 0.01 0.01 0.01 0.01 0.01 0.01 0.01 0.02 0.02 0.02 0.02 0.02 0.01
0.01 0.00 0.00 0.00 0.00 0.01 0.01 0.01 0.00 0.01 0.01 0.01 0.01 0.01 0.01 0.00 0.00 0.00 0.00 0.00 0.01 0.01 0.01 0.01 0.01 0.01 0.01 0.01 0.01 0.01 0.01 0.01 0.01 0.01 0.01 0.01 0.01 0.01 0.01 0.01 0.02 0.03 0.03 0.03
0.01 0.01 0.01 0.01 0.01 0.01 0.01 0.01 0.01 0.01 0.01 0.01 0.01 0.01 0.01 0.01 0.01 0.01 0.01 0.01 0.01 0.01 0.01 0.01 0.01 0.01 0.01 0.01 0.02 0.02 0.01 0.01 0.01 0.01 0.01 0.01 0.01 0.01 0.01 0.01 0.01 0.01 0.02 0.03
0.02 0.01 0.01 0.01 0.01 0.01 0.01 0.01 0.01 0.01 0.01 0.01 0.01 0.01 0.01 0.01 0.00 0.00 0.00 0.00 0.01 0.01 0.01 0.01 0.01 0.01 0.01 0.02 0.02 0.02 0.02 0.02 0.02 0.01 0.01 0.01 0.01 0.01 0.01 0.01 0.01 0.01 0.01 0.02
0.01 0.01 0.01 0.00 0.01 0.01 0.01 0.01 0.01 0.01 0.01 0.01 0.01 0.01 0.01 0.00 0.00 0.00 0.00 0.01 0.01 0.01 0.01 0.01 0.01 0.01 0.01 0.02 0.02 0.02 0.02 0.02 0.02 0.02 0.02 0.02 0.02 0.01 0.01 0.01 0.02 0.02 0.02 0.02
0.01 0.01 0.01 0.01 0.01 0.00 0.01 0.01 0.01 0.01 0.01 0.01 0.01 0.01 0.01 0.00 0.00 0.00 0.01 0.01 0.01 0.01 0.01 0.01 0.02 0.02 0.02 0.02 0.02 0.02 0.02 0.02 0.02 0.02 0.02 0.02 0.02 0.01 0.01 0.01 0.01 0.02 0.02 0.02
0.01 0.01 0.01 0.01 0.01 0.01 0.00 0.00 0.01 0.01 0.01 0.01 0.01 0.01 0.01 0.01 0.01 0.01 0.01 0.01 0.01 0.01 0.01 0.01 0.01 0.02 0.02 0.02 0.02 0.02 0.02 0.02 0.02 0.02 0.02 0.02 0.02 0.02 0.01 0.01 0.01 0.02 0.02 0.02
0.01 0.01 0.01 0.01 0.01 0.01 0.01 0.01 0.01 0.01 0.01 0.01 0.01 0.01 0.01 0.01 0.01 0.01 0.01 0.01 0.01 0.01 0.01 0.01 0.01 0.01 0.02 0.02 0.02 0.02 0.02 0.02 0.02 0.02 0.02 0.02 0.02 0.02 0.02 0.02 0.02 0.02 0.02 0.02
0.01 0.01 0.02 0.02 0.01 0.01 0.00 0.01 0.01 0.01 0.01 0.01 0.01 0.00 0.01 0.01 0.01 0.01 0.01 0.01 0.01 0.01 0.01 0.01 0.01 0.01 0.01 0.01 0.01 0.01 0.01 0.01 0.02 0.02 0.02 0.02 0.02 0.01 0.02 0.02 0.02 0.02 0.02 0.02
0.01 0.01 0.01 0.01 0.01 0.01 0.00 0.01 0.01 0.01 0.01 0.01 0.01 0.01 0.01 0.01 0.01 0.01 0.01 0.01 0.01 0.01 0.01 0.01 0.01 0.01 0.01 0.01 0.01 0.01 0.01 0.01 0.01 0.01 0.01 0.01 0.01 0.01 0.02 0.02 0.02 0.02 0.02 0.02
0.00 0.01 0.01 0.01 0.00 0.01 0.00 0.01 0.01 0.01 0.01 0.01 0.01 0.01 0.01 0.01 0.01 0.01 0.01 0.01 0.01 0.01 0.01 0.01 0.01 0.01 0.01 0.01 0.01 0.01 0.01 0.01 0.01 0.01 0.01 0.01 0.01 0.01 0.02 0.02 0.01 0.02 0.01 0.01
0.00 0.00 0.00 0.00 0.00 0.00 0.00 0.00 0.01 0.01 0.01 0.01 0.01 0.01 0.01 0.01 0.01 0.01 0.01 0.01 0.01 0.01 0.01 0.01 0.01 0.01 0.01 0.01 0.01 0.01 0.01 0.01 0.01 0.01 0.01 0.01 0.01 0.01 0.02 0.02 0.02 0.01 0.01 0.01
0.00 0.00 0.01 0.01 0.00 0.00 0.00 0.00 0.01 0.01 0.01 0.01 0.01 0.01 0.01 0.01 0.01 0.01 0.01 0.01 0.01 0.01 0.01 0.01 0.01 0.02 0.02 0.02 0.02 0.01 0.01 0.01 0.01 0.01 0.01 0.01 0.02 0.01 0.01 0.02 0.02 0.02 0.01 0.01
0.01 0.01 0.01 0.01 0.01 0.00 0.00 0.00 0.01 0.01 0.01 0.01 0.01 0.01 0.01 0.01 0.01 0.01 0.01 0.01 0.01 0.01 0.01 0.01 0.02 0.02 0.02 0.01 0.01 0.02 0.02 0.02 0.03 0.03 0.03 0.03 0.02 0.02 0.02 0.02 0.03 0.02 0.02 0.02
0.01 0.00 0.00 0.00 0.00 0.00 0.00 0.01 0.01 0.01 0.01 0.01 0.01 0.01 0.01 0.01 0.01 0.01 0.01 0.01 0.01 0.01 0.01 0.02 0.02 0.02 0.02 0.01 0.01 0.01 0.02 0.02 0.02 0.03 0.03 0.03 0.03 0.03 0.03 0.03 0.03 0.03 0.03 0.02
0.00 0.00 0.00 0.00 0.00 0.01 0.01 0.01 0.01 0.01 0.01 0.01 0.01 0.01 0.01 0.01 0.01 0.01 0.01 0.01 0.01 0.01 0.01 0.01 0.02 0.02 0.02 0.02 0.02 0.02 0.02 0.02 0.02 0.02 0.02 0.02 0.02 0.02 0.02 0.02 0.02 0.02 0.02 0.02
0.00 0.00 0.00 0.00 0.00 0.00 0.01 0.01 0.01 0.01 0.01 0.01 0.01 0.01 0.01 0.01 0.01 0.01 0.01 0.01 0.01 0.01 0.01 0.01 0.01 0.01 0.01 0.02 0.02 0.02 0.02 0.02 0.02 0.02 0.02 0.02 0.02 0.02 0.02 0.02 0.02 0.02 0.02 0.02
0.00 0.00 0.00 0.00 0.00 0.00 0.00 0.00 0.01 0.01 0.01 0.01 0.01 0.01 0.01 0.01 0.01 0.01 0.01 0.01 0.01 0.01 0.01 0.01 0.01 0.02 0.02 0.02 0.02 0.02 0.02 0.02 0.03 0.02 0.02 0.02 0.02 0.02 0.02 0.02 0.02 0.02 0.02 0.02
MSLP
1025.06 1025.75 1026.30 1026.64 1026.71 1026.47 1025.94 1025.15 1024.19 1023.15 1022.17 1021.36 1020.83 1020.65 1020.83 1021.34 1022.13 1023.09 1024.15 1025.19 1026.14 1026.95 1027.62 1028.14 1028.55 1028.87 1029.14 1029.38 1029.58 1029.74 1029.84 1029.85 1029.78 1029.61 1029.35 1029.00 1028.59 1028.14 1027.64 1027.10 1026.51 1025.86 1025.11 1024.28
1025.27 1025.63 1025.81 1025.77 1025.48 1024.95 1024.21 1023.32 1022.35 1021.41 1020.59 1019.98 1019.67 1019.69 1020.02 1020.64 1021.49 1022.47 1023.50 1024.52 1025.45 1026.26 1026.95 1027.53 1028.00 1028.40 1028.75 1029.05 1029.29 1029.48 1029.58 1029.59 1029.50 1029.31 1029.04 1028.69 1028.29 1027.86 1027.40 1026.90 1026.35 1025.74 1025.05 1024.27
1025.36 1025.37 1025.16 1024.74 1024.10 1023.29 1022.37 1021.39 1020.45 1019.62 1018.98 1018.59 1018.51 1018.72 1019.22 1019.95 1020.85 1021.85 1022.88 1023.87 1024.79 1025.61 1026.33 1026.95 1027.49 1027.97 1028.38 1028.73 1029.02 1029.21 1029.32 1029.31 1029.20 1028.99 1028.70 1028.36 1027.97 1027.56 1027.14 1026.68 1026.18 1025.62 1024.98 1024.24
1025.16 1024.85 1024.29 1023.53 1022.60 1021.58 1020.54 1019.54 1018.67 1017.98 1017.55 1017.39 1017.52 1017.93 1018.58 1019.40 1020.35 1021.36 1022.37 1023.34 1024.24 1025.06 1025.79 1026.46 1027.05 1027.58 1028.05 1028.44 1028.75 1028.95 1029.04 1029.02 1028.88 1028.66 1028.36 1028.01 1027.64 1027.26 1026.87 1026.46 1026.01 1025.49 1024.90 1024.21
1024.54 1023.96 1023.14 1022.14 1021.03 1019.90 1018.83 1017.89 1017.16 1016.67 1016.45 1016.52 1016.87 1017.45 1018.21 1019.10 1020.07 1021.06 1022.04 1022.97 1023.83 1024.64 1025.38 1026.06 1026.69 1027.26 1027.76 1028.17 1028.48 1028.68 1028.75 1028.71 1028.55 1028.31 1028.00 1027.66 1027.31 1026.96 1026.60 1026.23 1025.82 1025.35 1024.79 1024.14
1023.43 1022.66 1021.69 1020.57 1019.41 1018.30 1017.32 1016.54 1016.00 1015.75 1015.77 1016.07 1016.60 1017.32 1018.17 1019.09 1020.05 1020.99 1021.91 1022.77 1023.59 1024.35 1025.08 1025.76 1026.40 1026.99 1027.50 1027.92 1028.22 1028.40 1028.45 1028.38 1028.20 1027.95 1027.64 1027.31 1026.98 1026.66 1026.33 1025.99 1025.61 1025.18 1024.65 1024.03
1021.83 1020.99 1019.98 1018.89 1017.81 1016.83 1016.04 1015.49 1015.22 1015.22 1015.49 1016.00 1016.70 1017.52 1018.41 1019.33 1020.24 1021.12 1021.94 1022.73 1023.47 1024.19 1024.88 1025.55 1026.18 1026.76 1027.26 1027.67 1027.95 1028.11 1028.14 1028.04 1027.85 1027.59 1027.28 1026.96 1026.65 1026.34 1026.04 1025.73 1025.37 1024.96 1024.46 1023.86
1019.84 1019.02 1018.09 1017.14 1016.25 1015.51 1014.99 1014.73 1014.74 1015.01 1015.52 1016.21 1017.03 1017.92 1018.82 1019.71 1020.56 1021.35 1022.08 1022.78 1023.45 1024.11 1024.75 1025.38 1025.99 1026.55 1027.03 1027.42 1027.68 1027.81 1027.81 1027.70 1027.50 1027.23 1026.93 1026.62 1026.32 1026.03 1025.74 1025.43 1025.09 1024.68 1024.19 1023.62
1017.60 1016.90 1016.14 1015.41 1014.78 1014.34 1014.13 1014.17 1014.46 1014.98 1015.68 1016.52 1017.43 1018.35 1019.25 1020.10 1020.87 1021.58 1022.24 1022.86 1023.46 1024.06 1024.66 1025.26 1025.83 1026.36 1026.81 1027.16 1027.39 1027.50 1027.48 1027.36 1027.15 1026.89 1026.59 1026.29 1026.00 1025.71 1025.41 1025.10 1024.75 1024.34 1023.85 1023.29
1015.31 1014.78 1014.25 1013.78 1013.45 1013.31 1013.40 1013.72 1014.26 1014.98 1015.84 1016.77 1017.74 1018.67 1019.55 1020.35 1021.08 1021.73 1022.33 1022.90 1023.46 1024.02 1024.59 1025.15 1025.69 1026.18 1026.60 1026.91 1027.11 1027.19 1027.16 1027.03 1026.82 1026.57 1026.28 1025.98 1025.69 1025.39 1025.08 1024.74 1024.37 1023.94 1023.44 1022.88
1013.13 1012.81 1012.52 1012.33 1012.28 1012.42 1012.77 1013.31 1014.04 1014.90 1015.85 1016.84 1017.83 1018.76 1019.62 1020.40 1021.10 1021.73 1022.32 1022.88 1023.43 1023.98 1024.53 1025.07 1025.58 1026.03 1026.41 1026.68 1026.85 1026.90 1026.86 1026.72 1026.52 1026.27 1026.00 1025.70 1025.40 1025.09 1024.75 1024.38 1023.97 1023.51 1022.99 1022.42
1011.19 1011.08 1011.03 1011.09 1011.29 1011.66 1012.20 1012.90 1013.73 1014.67 1015.66 1016.67 1017.65 1018.58 1019.44 1020.22 1020.94 1021.60 1022.22 1022.81 1023.39 1023.96 1024.51 1025.03 1025.51 1025.92 1026.25 1026.48 1026.61 1026.64 1026.58 1026.44 1026.25 1026.02 1025.75 1025.46 1025.15 1024.82 1024.45 1024.04 1023.58 1023.07 1022.52 1021.95
1009.53 1009.62 1009.80 1010.07 1010.47 1011.01 1011.68 1012.47 1013.35 1014.31 1015.29 1016.29 1017.26 1018.18 1019.06 1019.88 1020.65 1021.37 1022.06 1022.73 1023.36 1023.97 1024.54 1025.05 1025.50 1025.86 1026.14 1026.32 1026.41 1026.41 1026.34 1026.20 1026.02 1025.80 1025.55 1025.27 1024.96 1024.60 1024.19 1023.73 1023.22 1022.67 1022.09 1021.49
1008.11 1008.40 1008.77 1009.23 1009.79 1010.45 1011.20 1012.03 1012.92 1013.85 1014.81 1015.78 1016.73 1017.67 1018.58 1019.46 1020.32 1021.14 1021.93 1022.69 1023.39 1024.05 1024.63 1025.13 1025.55 1025.86 1026.08 1026.21 1026.25 1026.21 1026.13 1025.99 1025.83 1025.63 1025.40 1025.12 1024.80 1024.43 1023.99 1023.49 1022.93 1022.33 1021.71 1021.09
1006.85 1007.33 1007.88 1008.51 1009.20 1009.95 1010.75 1011.60 1012.47 1013.38 1014.30 1015.24 1016.19 1017.15 1018.12 1019.08 1020.03 1020.96 1021.86 1022.71 1023.49 1024.19 1024.78 1025.27 1025.64 1025.90 1026.06 1026.12 1026.11 1026.05 1025.94 1025.81 1025.66 1025.48 1025.27 1025.01 1024.69 1024.30 1023.84 1023.30 1022.70 1022.06 1021.40 1020.76
1005.66 1006.31 1007.04 1007.82 1008.64 1009.47 1010.32 1011.18 1012.05 1012.93 1013.84 1014.77 1015.73 1016.73 1017.75 1018.80 1019.85 1020.89 1021.88 1022.81 1023.65 1024.37 1024.97 1025.42 1025.75 1025.95 1026.04 1026.04 1025.99 1025.89 1025.78 1025.65 1025.50 1025.34 1025.15 1024.90 1024.59 1024.20 1023.72 1023.16 1022.53 1021.85 1021.16 1020.49
1004.44 1005.27 1006.17 1007.10 1008.04 1008.97 1009.88 1010.78 1011.66 1012.55 1013.46 1014.40 1015.39 1016.43 1017.52 1018.64 1019.78 1020.90 1021.97 1022.95 1023.82 1024.55 1025.13 1025.55 1025.82 1025.96 1026.00 1025.95 1025.85 1025.73 1025.61 1025.48 1025.35 1025.20 1025.02 1024.79 1024.48 1024.09 1023.60 1023.02 1022.37 1021.67 1020.97 1020.29
1003.17 1004.17 1005.23 1006.31 1007.38 1008.41 1009.41 1010.36 1011.29 1012.21 1013.15 1014.13 1015.17 1016.26 1017.41 1018.59 1019.78 1020.95 1022.06 1023.07 1023.94 1024.66 1025.21 1025.59 1025.81 1025.91 1025.90 1025.81 1025.69 1025.55 1025.42 1025.30 1025.18 1025.05 1024.88 1024.65 1024.34 1023.94 1023.44 1022.85 1022.19 1021.49 1020.79 1020.12
1001.89 1003.03 1004.23 1005.45 1006.64 1007.79 1008.88 1009.92 1010.92 1011.91 1012.91 1013.94 1015.03 1016.17 1017.36 1018.58 1019.81 1020.99 1022.11 1023.11 1023.96 1024.65 1025.16 1025.50 1025.69 1025.74 1025.71 1025.61 1025.48 1025.35 1025.22 1025.10 1024.99 1024.86 1024.69 1024.46 1024.14 1023.73 1023.23 1022.64 1021.98 1021.29 1020.60 1019.95
1000.69 1001.93 1003.24 1004.57 1005.87 1007.12 1008.31 1009.44 1010.53 1011.61 1012.68 1013.79 1014.93 1016.11 1017.34 1018.57 1019.80 1020.97 1022.06 1023.02 1023.84 1024.48 1024.95 1025.26 1025.42 1025.47 1025.43 1025.34 1025.23 1025.11 1025.00 1024.90 1024.79 1024.65 1024.48 1024.23 1023.90 1023.48 1022.97 1022.37 1021.73 1021.05 1020.39 1019.77
999.69 1000.99 1002.36 1003.76 1005.13 1006.47 1007.75 1008.97 1010.16 1011.32 1012.48 1013.65 1014.85 1016.07 1017.31 1018.54 1019.74 1020.88 1021.92 1022.83 1023.58 1024.18 1024.61 1024.90 1025.06 1025.11 1025.09 1025.03 1024.95 1024.86 1024.78 1024.69 1024.58 1024.45 1024.25 1023.98 1023.63 1023.19 1022.66 1022.07 1021.44 1020.79 1020.16 1019.59
999.01 1000.32 1001.70 1003.12 1004.53 1005.92 1007.26 1008.56 1009.83 1011.08 1012.31 1013.56 1014.80 1016.05 1017.30 1018.51 1019.67 1020.75 1021.72 1022.56 1023.26 1023.80 1024.20 1024.47 1024.63 1024.70 1024.72 1024.70 1024.67 1024.63 1024.57 1024.50 1024.40 1024.26 1024.04 1023.75 1023.37 1022.90 1022.36 1021.77 1021.15 1020.52 1019.94 1019.41
998.74 1000.00 1001.35 1002.74 1004.15 1005.55 1006.93 1008.29 1009.63 1010.95 1012.26 1013.56 1014.85 1016.12 1017.36 1018.54 1019.65 1020.66 1021.55 1022.31 1022.93 1023.42 1023.78 1024.03 1024.20 1024.31 1024.37 1024.40 1024.42 1024.42 1024.40 1024.36 1024.26 1024.10 1023.87 1023.55 1023.14 1022.66 1022.10 1021.51 1020.90 1020.30 1019.76 1019.28
998.88 1000.07 1001.34 1002.68 1004.05 1005.44 1006.84 1008.23 1009.62 1011.00 1012.37 1013.73 1015.05 1016.34 1017.56 1018.70 1019.75 1020.68 1021.49 1022.16 1022.70 1023.12 1023.44 1023.68 1023.85 1023.97 1024.07 1024.15 1024.22 1024.26 1024.28 1024.26 1024.17 1024.01 1023.76 1023.41 1022.98 1022.48 1021.91 1021.32 1020.72 1020.15 1019.64 1019.21
999.41 1000.50 1001.68 1002.94 1004.25 1005.61 1007.01 1008.42 1009.85 1011.28 1012.70 1014.10 1015.46 1016.74 1017.95 1019.05 1020.03 1020.88 1021.59 1022.17 1022.62 1022.97 1023.24 1023.44 1023.60 1023.74 1023.86 1023.98 1024.09 1024.17 1024.21 1024.21 1024.13 1023.97 1023.70 1023.34 1022.90 1022.38 1021.81 1021.21 1020.62 1020.08 1019.60 1019.20
1000.22 1001.21 1002.30 1003.48 1004.73 1006.05 1007.43 1008.86 1010.32 1011.79 1013.26 1014.69 1016.06 1017.35 1018.53 1019.58 1020.49 1021.26 1021.88 1022.36 1022.72 1023.00 1023.20 1023.36 1023.50 1023.63 1023.76 1023.90 1024.02 1024.13 1024.20 1024.20 1024.13 1023.97 1023.70 1023.33 1022.87 1022.34 1021.76 1021.17 1020.60 1020.07 1019.61 1019.24
1001.19 1002.10 1003.11 1004.22 1005.42 1006.70 1008.07 1009.50 1010.98 1012.48 1013.97 1015.43 1016.82 1018.10 1019.25 1020.25 1021.10 1021.78 1022.31 1022.70 1022.98 1023.17 1023.31 1023.42 1023.52 1023.63 1023.76 1023.89 1024.02 1024.14 1024.21 1024.22 1024.15 1023.98 1023.70 1023.32 1022.86 1022.32 1021.75 1021.16 1020.59 1020.07 1019.63 1019.28
Thickness
5419 5422 5419 5420 5421 5414 5412 5416 5417 5426 5424 5436 5432 5425 5420 5416 5412 5409 5407 5404 5402 5398 5394 5391 5389 5388 5387 5386 5386 5386 5386 5386 5386 5387 5387 5387 5387 5387 5387 5387 5388 5388 5389 5389
5410 5413 5408 5411 5414 5410 5411 5413 5413 5417 5422 5428 5421 5414 5410 5407 5405 5404 5401 5398 5395 5391 5387 5384 5382 5380 5378 5377 5377 5377 5377 5377 5377 5377 5377 5377 5378 5378 5378 5378 5378 5378 5379 5380
5405 5396 5404 5411 5414 5409 5406 5405 5407 5414 5423 5419 5413 5410 5405 5401 5399 5397 5395 5391 5387 5383 5379 5377 5374 5372 5370 5369 5369 5368 5368 5368 5367 5367 5367 5367 5368 5368 5368 5368 5368 5368 5369 5369
5384 5391 5401 5424 5410 5407 5406 5404 5399 5404 5407 5405 5403 5399 5395 5393 5391 5389 5386 5382 5379 5375 5372 5369 5366 5364 5362 5361 5360 5360 5359 5359 5358 5357 5357 5357 5357 5358 5358 5358 5358 5358 5359 5359
5372 5379 5392 5408 5404 5396 5395 5401 5397 5395 5398 5395 5390 5390 5391 5387 5382 5380 5377 5374 5371 5368 5365 5362 5359 5357 5355 5354 5352 5351 5351 5350 5349 5349 5348 5347 5348 5348 5348 5348 5348 5348 5349 5350
5364 5378 5389 5411 5397 5389 5391 5397 5397 5389 5389 5385 5382 5386 5389 5382 5376 5373 5370 5366 5363 5360 5357 5354 5351 5349 5347 5346 5344 5344 5343 5342 5341 5340 5339 5338 5338 5338 5338 5338 5339 5339 5340 5340
5361 5365 5382 5391 5382 5383 5392 5399 5391 5382 5380 5374 5373 5376 5374 5370 5368 5365 5362 5359 5356 5353 5350 5347 5344 5342 5340 5338 5337 5337 5335 5334 5333 5332 5331 5330 5330 5329 5329 5329 5330 5330 5331 5332
5355 5361 5384 5379 5375 5380 5386 5382 5379 5376 5372 5368 5367 5365 5363 5362 5360 5357 5354 5352 5349 5345 5342 5340 5338 5335 5333 5332 5331 5330 5328 5327 5326 5325 5323 5322 5321 5320 5320 5320 5321 5322 5323 5325
5367 5381 5380 5371 5372 5374 5372 5372 5371 5369 5366 5362 5359 5358 5357 5354 5352 5349 5347 5344 5342 5338 5336 5334 5331 5329 5327 5326 5325 5323 5322 5321 5319 5318 5316 5315 5313 5313 5312 5313 5313 5315 5317 5318
5357 5369 5371 5368 5367 5367 5366 5365 5365 5362 5359 5356 5354 5352 5349 5347 5345 5342 5340 5337 5334 5331 5329 5327 5325 5323 5321 5320 5319 5317 5316 5315 5313 5312 5310 5308 5308 5307 5307 5307 5307 5309 5311 5313
5354 5363 5364 5368 5365 5364 5362 5359 5357 5355 5353 5351 5348 5345 5342 5340 5338 5336 5334 5331 5327 5324 5323 5321 5319 5317 5316 5314 5312 5311 5310 5309 5308 5306 5304 5303 5303 5302 5302 5303 5304 5305 5306 5308
5366 5367 5363 5367 5365 5360 5357 5355 5352 5350 5348 5345 5342 5339 5336 5334 5332 5329 5327 5324 5321 5319 5317 5315 5313 5311 5310 5308 5306 5305 5305 5304 5302 5301 5299 5298 5298 5298 5299 5299 5301 5302 5303 5303
5362 5361 5358 5358 5356 5354 5351 5350 5347 5344 5342 5339 5336 5332 5330 5327 5325 5322 5320 5317 5315 5313 5311 5308 5307 5305 5304 5302 5301 5299 5298 5298 5297 5296 5295 5294 5293 5293 5294 5295 5296 5297 5298 5299
5351 5350 5351 5352 5349 5346 5344 5342 5340 5337 5335 5332 5329 5326 5323 5320 5318 5315 5313 5311 5308 5306 5304 5302 5300 5299 5298 5296 5295 5294 5293 5292 5292 5290 5289 5289 5289 5288 5288 5289 5289 5291 5292 5294
5346 5344 5345 5344 5341 5338 5336 5334 5332 5330 5328 5325 5322 5320 5317 5314 5311 5309 5307 5305 5303 5300 5298 5296 5295 5294 5293 5291 5290 5289 5288 5287 5286 5285 5284 5284 5284 5284 5284 5284 5284 5285 5285 5287
5342 5339 5337 5336 5334 5332 5329 5327 5326 5324 5322 5320 5317 5314 5311 5308 5305 5302 5300 5298 5296 5295 5293 5291 5289 5289 5287 5286 5285 5284 5283 5283 5282 5280 5280 5280 5280 5279 5279 5279 5279 5279 5280 5281
5336 5336 5334 5332 5330 5328 5325 5323 5321 5320 5317 5315 5312 5309 5305 5302 5299 5297 5294 5292 5290 5288 5287 5286 5285 5284 5283 5281 5279 5279 5278 5277 5277 5276 5275 5275 5275 5275 5274 5274 5273 5274 5274 5276
5334 5334 5332 5330 5328 5325 5322 5320 5318 5316 5313 5310 5307 5303 5300 5297 5294 5292 5289 5287 5286 5284 5283 5281 5281 5280 5279 5277 5275 5274 5273 5272 5271 5271 5271 5271 5271 5270 5270 5269 5269 5270 5270 5272
5329 5328 5326 5325 5324 5321 5319 5316 5314 5311 5308 5305 5302 5299 5296 5293 5290 5287 5285 5283 5281 5280 5280 5278 5278 5277 5275 5273 5272 5270 5269 5268 5267 5267 5267 5267 5267 5266 5266 5265 5265 5266 5267 5268
5325 5324 5322 5321 5319 5316 5314 5312 5309 5306 5303 5300 5297 5294 5291 5288 5286 5283 5280 5278 5278 5276 5276 5275 5274 5273 5271 5269 5268 5266 5264 5263 5263 5263 5262 5262 5262 5262 5261 5262 5262 5263 5263 5264
5320 5319 5317 5315 5313 5312 5309 5307 5304 5301 5298 5295 5293 5290 5287 5284 5282 5279 5277 5276 5275 5274 5272 5272 5270 5269 5268 5267 5265 5263 5261 5260 5259 5258 5258 5258 5258 5258 5258 5258 5259 5260 5260 5261
5314 5312 5311 5309 5307 5305 5304 5301 5299 5296 5293 5291 5288 5286 5283 5280 5278 5276 5274 5273 5272 5272 5270 5268 5266 5266 5266 5264 5262 5259 5258 5256 5255 5255 5255 5255 5255 5255 5255 5256 5256 5257 5258 5259
5308 5307 5305 5304 5302 5299 5297 5296 5294 5291 5289 5286 5284 5281 5280 5278 5275 5273 5272 5271 5269 5269 5267 5265 5265 5265 5264 5261 5258 5256 5255 5254 5253 5252 5252 5252 5252 5252 5253 5254 5254 5255 5256 5257
5303 5301 5299 5297 5295 5294 5292 5290 5288 5286 5284 5282 5280 5278 5276 5274 5272 5271 5269 5269 5267 5266 5264 5263 5263 5263 5261 5257 5255 5253 5252 5251 5250 5250 5250 5250 5251 5251 5251 5252 5253 5254 5255 5256
5296 5294 5293 5291 5291 5290 5287 5284 5282 5280 5278 5277 5276 5275 5273 5271 5269 5267 5265 5264 5264 5263 5260 5259 5260 5259 5256 5253 5251 5250 5249 5248 5248 5248 5248 5248 5249 5249 5250 5251 5251 5252 5253 5254
5290 5288 5287 5286 5285 5283 5281 5279 5277 5276 5274 5273 5272 5271 5269 5267 5266 5263 5262 5261 5260 5259 5257 5256 5254 5254 5252 5250 5249 5247 5246 5246 5245 5245 5246 5247 5247 5248 5248 5249 5249 5250 5251 5252
5283 5282 5281 5280 5279 5277 5276 5274 5273 5272 5270 5269 5268 5266 5265 5263 5261 5260 5258 5257 5256 5255 5254 5253 5251 5250 5248 5247 5246 5245 5244 5244 5243 5243 5244 5244 5245 5245 5246 5246 5247 5248 5249 5250